| time (UTC) | temp C | wind direction | speed KPH | gust KPH | rain 1hr cm | rain 24hr cm | rain mn cm | humidity % | barometer mb |
| 20260506234603 | 11 | 292 | 0.0 | 0.0 | 0.00 | 2.01 | 0.53 | 58 | 1012.1 |
| 20260506233056 | 11 | 291 | 0.0 | 0.0 | 0.00 | 2.01 | 0.53 | 56 | 1012.1 |
| 20260506231555 | 11 | 242 | 0.0 | 1.6 | 0.00 | 2.01 | 0.53 | 55 | 1012.4 |
| 20260506230054 | 11 | 307 | 0.0 | 3.2 | 0.00 | 2.01 | 0.53 | 56 | 1012.6 |
| 20260506224550 | 11 | 262 | 0.0 | 0.0 | 0.00 | 2.26 | 0.53 | 54 | 1012.5 |
| 20260506223049 | 12 | 344 | 0.0 | 0.0 | 0.00 | 2.26 | 0.53 | 54 | 1012.2 |
| 20260506221548 | 12 | 297 | 0.0 | 8.0 | 0.00 | 2.26 | 0.53 | 53 | 1012.2 |
| 20260506220052 | 12 | 288 | 0.0 | 8.0 | 0.00 | 2.26 | 0.53 | 53 | 1012.2 |
| 20260506214547 | 12 | 332 | 0.0 | 1.6 | 0.00 | 3.00 | 0.53 | 52 | 1011.8 |
| 20260506213046 | 12 | 336 | 0.0 | 0.0 | 0.00 | 3.00 | 0.53 | 53 | 1011.8 |
| 20260506211542 | 12 | 294 | 0.0 | 1.6 | 0.00 | 3.00 | 0.53 | 52 | 1011.8 |
| 20260506210042 | 12 | 5 | 0.0 | 1.6 | 0.00 | 3.00 | 0.53 | 51 | 1011.6 |
| 20260506204543 | 12 | 334 | 0.0 | 1.6 | 0.00 | 3.00 | 0.53 | 50 | 1011.5 |
| 20260506203042 | 12 | 342 | 0.0 | 6.4 | 0.00 | 3.00 | 0.53 | 50 | 1011.4 |
| 20260506201541 | 12 | 284 | 0.0 | 12.9 | 0.00 | 3.00 | 0.53 | 52 | 1011.4 |
| 20260506200041 | 12 | 284 | 0.0 | 3.2 | 0.00 | 3.05 | 0.53 | 52 | 1011.6 |
| 20260506194539 | 12 | 338 | 0.0 | 4.8 | 0.00 | 3.05 | 0.53 | 50 | 1011.5 |
| 20260506193042 | 12 | 12 | 0.0 | 1.6 | 0.00 | 3.05 | 0.53 | 54 | 1011.3 |
| 20260506191538 | 12 | 303 | 0.0 | 0.0 | 0.00 | 3.05 | 0.53 | 51 | 1011.4 |
| 20260506190041 | 12 | 346 | 0.0 | 1.6 | 0.00 | 3.05 | 0.53 | 53 | 1011.3 |
| 20260506184546 | 12 | 333 | 0.0 | 8.0 | 0.00 | 3.05 | 0.53 | 55 | 1011.3 |
| 20260506183036 | 12 | 291 | 0.0 | 9.7 | 0.00 | 3.05 | 0.53 | 52 | 1011.5 |
| 20260506181536 | 12 | 314 | 0.0 | 1.6 | 0.00 | 3.05 | 0.53 | 52 | 1011.6 |
| 20260506180034 | 13 | 306 | 0.0 | 8.0 | 0.00 | 3.05 | 0.53 | 50 | 1011.2 |
| 20260506174533 | 13 | 337 | 0.0 | 8.0 | 0.00 | 3.05 | 0.53 | 56 | 1011.2 |
| 20260506173043 | 13 | 324 | 0.0 | 6.4 | 0.00 | 3.05 | 0.53 | 55 | 1011.4 |
| 20260506171530 | 13 | 346 | 0.0 | 8.0 | 0.00 | 3.05 | 0.53 | 55 | 1011.5 |
| 20260506170026 | 13 | 32 | 0.0 | 6.4 | 0.00 | 3.05 | 0.53 | 59 | 1011.1 |
| 20260506164526 | 12 | 284 | 0.0 | 12.9 | 0.00 | 3.05 | 0.53 | 59 | 1011.1 |
| 20260506163031 | 12 | 19 | 0.0 | 17.7 | 0.00 | 3.05 | 0.53 | 59 | 1010.9 |
| 20260506161523 | 12 | 289 | 0.0 | 8.0 | 0.00 | 3.05 | 0.53 | 61 | 1011.4 |
| 20260506160021 | 12 | 281 | 0.0 | 8.0 | 0.00 | 3.05 | 0.53 | 66 | 1011.3 |
| 20260506154517 | 12 | 329 | 0.0 | 0.0 | 0.00 | 3.05 | 0.53 | 66 | 1010.9 |
| 20260506153012 | 11 | 306 | 0.0 | 6.4 | 0.00 | 3.05 | 0.53 | 71 | 1010.6 |
| 20260506151510 | 11 | 272 | 0.0 | 8.0 | 0.00 | 3.05 | 0.53 | 69 | 1010.7 |
| 20260506150006 | 11 | 342 | 0.0 | 1.6 | 0.00 | 3.05 | 0.53 | 72 | 1010.4 |
| 20260506144504 | 11 | 284 | 0.0 | 4.8 | 0.00 | 3.05 | 0.53 | 75 | 1010.5 |
| 20260506143059 | 10 | 296 | 0.0 | 1.6 | 0.00 | 3.05 | 0.53 | 76 | 1010.1 |
| 20260506141554 | 9 | 319 | 0.0 | 11.3 | 0.00 | 3.05 | 0.53 | 79 | 1009.9 |
| 20260506140050 | 8 | 300 | 0.0 | 3.2 | 0.00 | 3.05 | 0.53 | 82 | 1009.7 |
| 20260506134544 | 8 | 333 | 0.0 | 8.0 | 0.00 | 3.05 | 0.53 | 83 | 1009.7 |
| 20260506133041 | 7 | 317 | 0.0 | 0.0 | 0.00 | 3.05 | 0.53 | 87 | 1010.0 |
| 20260506131548 | 7 | 319 | 0.0 | 0.0 | 0.00 | 3.05 | 0.53 | 88 | 1009.8 |
| 20260506130052 | 7 | 312 | 0.0 | 0.0 | 0.00 | 3.05 | 0.53 | 89 | 1009.5 |
| 20260506124532 | 7 | 17 | 0.0 | 0.0 | 0.00 | 3.05 | 0.53 | 90 | 1009.4 |
| 20260506123029 | 6 | 320 | 0.0 | 0.0 | 0.00 | 3.05 | 0.53 | 91 | 1009.0 |
| 20260506121526 | 6 | 326 | 0.0 | 0.0 | 0.00 | 3.05 | 0.53 | 91 | 1008.9 |
| 20260506120023 | 6 | 315 | 0.0 | 0.0 | 0.00 | 3.05 | 0.53 | 91 | 1008.5 |
| 20260506114520 | 6 | 323 | 0.0 | 1.6 | 0.00 | 3.05 | 0.53 | 91 | 1008.0 |
| 20260506113017 | 6 | 303 | 0.0 | 0.0 | 0.00 | 3.05 | 0.53 | 91 | 1007.9 |
| 20260506111513 | 6 | 9 | 0.0 | 0.0 | 0.00 | 3.05 | 0.53 | 91 | 1007.7 |
| 20260506110010 | 6 | 314 | 0.0 | 0.0 | 0.00 | 3.05 | 0.53 | 92 | 1008.1 |
| 20260506104507 | 6 | 355 | 0.0 | 0.0 | 0.00 | 3.05 | 0.53 | 93 | 1007.7 |
| 20260506103009 | 6 | 5 | 0.0 | 1.6 | 0.00 | 3.05 | 0.53 | 94 | 1006.9 |
| 20260506101512 | 6 | 340 | 0.0 | 0.0 | 0.00 | 3.05 | 0.53 | 94 | 1007.5 |
| 20260506100120 | 7 | 15 | 0.0 | 0.0 | 0.00 | 3.05 | 0.53 | 95 | 1006.9 |
| 20260506094559 | 7 | 355 | 0.0 | 1.6 | 0.00 | 3.05 | 0.53 | 95 | 1006.6 |
| 20260506093058 | 7 | 319 | 0.0 | 0.0 | 0.03 | 3.05 | 0.53 | 95 | 1006.7 |
| 20260506091558 | 7 | 360 | 0.0 | 0.0 | 0.03 | 3.05 | 0.53 | 95 | 1005.8 |
| 20260506090056 | 7 | 32 | 0.0 | 0.0 | 0.03 | 3.05 | 0.53 | 95 | 1006.0 |
| 20260506084621 | 7 | 5 | 0.0 | 1.6 | 0.03 | 3.05 | 0.53 | 95 | 1006.8 |
| 20260506083055 | 7 | 5 | 0.0 | 0.0 | 0.03 | 3.02 | 0.51 | 95 | 1006.7 |
| 20260506081557 | 7 | 26 | 0.0 | 4.8 | 0.03 | 3.02 | 0.51 | 95 | 1006.7 |
| 20260506073052 | 7 | 323 | 0.0 | 9.7 | 0.13 | 3.02 | 0.48 | 95 | 1006.4 |
| 20260506071551 | 7 | 350 | 0.0 | 8.0 | 0.15 | 3.02 | 0.48 | 96 | 1006.7 |
| 20260506061548 | 7 | 351 | 0.0 | 0.0 | 0.20 | 2.84 | 0.33 | 95 | 1006.1 |
| 20260506044634 | 7 | 328 | 0.0 | 0.0 | 0.05 | 2.59 | 0.05 | 95 | 1006.9 |
| 20260506043038 | 8 | 347 | 0.0 | 0.0 | 0.08 | 2.59 | 0.05 | 95 | 1006.5 |
| 20260506041534 | 7 | 11 | 0.0 | 0.0 | 0.08 | 2.57 | 0.03 | 95 | 1006.2 |
| 20260506040035 | 7 | 336 | 0.0 | 0.0 | 0.10 | 2.54 | 2.54 | 95 | 1006.0 |
| 20260506034600 | 7 | 12 | 0.0 | 0.0 | 0.18 | 2.54 | 2.54 | 95 | 1006.2 |
| 20260506033032 | 8 | 14 | 0.0 | 4.8 | 0.20 | 2.51 | 2.51 | 94 | 1006.4 |
| 20260506031529 | 8 | 5 | 0.0 | 0.0 | 0.20 | 2.49 | 2.49 | 95 | 1006.6 |
| 20260506030027 | 8 | 355 | 0.0 | 1.6 | 0.23 | 2.44 | 2.44 | 95 | 1006.9 |
| 20260506024528 | 8 | 23 | 0.0 | 0.0 | 0.28 | 2.36 | 2.36 | 95 | 1007.1 |
| 20260506023026 | 8 | 14 | 0.0 | 4.8 | 0.30 | 2.31 | 2.31 | 95 | 1007.3 |
| 20260506021521 | 8 | 83 | 0.0 | 8.0 | 0.36 | 2.29 | 2.29 | 94 | 1007.2 |
| 20260506020018 | 9 | 311 | 0.0 | 1.6 | 0.30 | 2.21 | 2.21 | 95 | 1007.2 |
| 20260506014520 | 9 | 5 | 0.0 | 1.6 | 0.28 | 2.08 | 2.08 | 95 | 1006.9 |
| 20260506013014 | 9 | 325 | 0.0 | 6.4 | 0.28 | 2.01 | 2.01 | 94 | 1006.5 |
| 20260506011515 | 10 | 9 | 0.0 | 1.6 | 0.41 | 1.93 | 1.93 | 94 | 1006.2 |
| 20260506010013 | 10 | 355 | 0.0 | 0.0 | 0.56 | 1.91 | 1.91 | 94 | 1006.3 |
| 20260506004518 | 10 | 17 | 0.0 | 14.5 | 0.64 | 1.80 | 1.80 | 94 | 1006.1 |
| 20260506003008 | 10 | 360 | 0.0 | 16.1 | 0.61 | 1.70 | 1.70 | 94 | 1006.1 |
| 20260506001502 | 11 | 15 | 3.2 | 19.3 | 0.43 | 1.52 | 1.52 | 93 | 1005.6 |
| 20260506000059 | 12 | 26 | 0.0 | 3.2 | 0.28 | 1.35 | 1.35 | 94 | 1005.5 |